Flag for United Kingdom Weather past 2 weeks in Winchester, England, United Kingdom

Now
61 °F

Fog.


Feels Like: 61 °F
Forecast: 55 / 76 °F
Wind: 7 mph from Northeast

Location: Middle Wallop

Current Time: Sep 19, 2014 at 9:51:29 AM

Latest Report: Sep 19, 2014 at 8:50 AM


Visibility: 0 mi

Pressure: 29.83 "Hg

Humidity: 100%

Dew point: 61 °F

Location of WinchesterLocation

Historic Weather in Winchester — Graph

°F

Winchester temperature yesterday

Maximum temperature yesterday: 73 °F (at 2:50 PM)
Minimum temperature yesterday: 59 °F (at 5:50 AM)
Average temperature yesterday: 65 °F

Past Weeks' High & Low Weather Summary

 TemperatureHumidityPressure
High75 °F (Sep 16, 2:50 PM)100% (Sep 7, 5:50 AM)30.33 "Hg (Sep 7, 5:50 AM)
Low46 °F (Sep 11, 6:50 AM)40% (Sep 8, 4:50 PM)29.77 "Hg (Sep 18, 3:50 AM)
Average61 °F76%30.05 "Hg
* Reported Sep 4 7:50 AM — Sep 19 7:50 AM, Winchester, Weather by CustomWeather, © 2014

Note: Actual official high and low records may vary slightly from our data, if they occured in-between our weather recording intervals... More about our weather records

Advertising

Winchester weather history for previous 24 hours

 ConditionsComfort  
Time TempWeatherWind HumidityBarometerVisibility
7:50 AM
Sep 19
61 °FFog.7 mph100%29.83 "Hg1 mi
6:50 AM61 °FFog.9 mph100%29.83 "Hg1 mi
5:50 AM63 °FPassing clouds.9 mph94%29.80 "Hg1 mi
4:50 AM63 °FPassing clouds.8 mph94%29.80 "Hg2 mi
3:50 AM63 °FPassing clouds.3 mph94%29.80 "Hg2 mi
2:50 AM63 °FPassing clouds.5 mph100%29.80 "Hg1 mi
1:50 AM63 °FPassing clouds.6 mph100%29.80 "Hg1 mi
12:50 AM64 °FPartly cloudy.2 mph94%29.80 "Hg2 mi
11:50 PM
Sep 18
64 °FPassing clouds.3 mph94%29.80 "Hg2 mi
10:50 PM64 °FPartly cloudy.2 mph94%29.80 "Hg3 mi
9:50 PM63 °FPassing clouds.2 mph94%29.80 "HgN/A
8:50 PM64 °FPassing clouds.6 mph94%29.80 "HgN/A
7:50 PM66 °FBroken clouds.6 mph83%29.80 "HgN/A
6:50 PM68 °FPartly sunny.5 mph83%29.77 "HgN/A
5:50 PM72 °FThunderstorms. Broken clouds.7 mph78%29.77 "Hg5 mi
4:50 PM73 °FBroken clouds.6 mph69%29.77 "Hg5 mi
3:50 PM73 °FBroken clouds.8 mph69%29.77 "Hg5 mi
2:50 PM73 °FBroken clouds.8 mph65%29.77 "Hg5 mi
1:50 PM72 °FBroken clouds.10 mph69%29.77 "Hg5 mi
1:06 PM70 °FBroken clouds.8 mph78%29.77 "Hg4 mi
12:50 PM68 °FBroken clouds.6 mph78%29.77 "Hg3 mi
11:50 AM63 °FSprinkles. Broken clouds.6 mph88%29.80 "Hg2 mi
10:50 AM64 °FThunderstorms. Scattered clouds.9 mph78%29.80 "Hg3 mi
10:20 AM64 °FPartly sunny.9 mph83%29.80 "Hg2 mi
9:50 AM63 °FPartly sunny.8 mph88%29.80 "Hg2 mi
Weather by CustomWeather, © 2014

See weather overviewHow to use our weather pages